STARLINK-3415, 51472

Orbit data source: Space-Track

STARLINK-3415, 51472 is a payload satellite owned by SpaceX/Seattle (US) in LEO that was launched on Thu, 03 Feb 2022 UTC via an FALCON 9 launch vehicle from the Air Force Eastern Test Range (AFETR). Payload-class satellites include a variety of spacecraft equipped with specific instruments for various scientific and technological missions. These include communications satellites like Starlink; space stations such as the ISS; scientific satellites like the Hubble; Earth observation satellites from companies like Planet Labs, Umbra, and HawkEye 360; GPS; miniature CubeSats for education and research; and military/defense satellites.

Loading next visibility...
Identifier
51472, 2022-010S
Orbit
LEO
Country
Flag of USUS
Related business
Manufacturer
SpaceX/Seattle
Mission
Operational Commercial Communications
Bus & Motor
STARLINK, Unknown motor
Mass
297 kg wet, ~275 kg dry
Launch date (UTC)
2022-02-03 (4 years ago)
Launch vehicle
FALCON 9
Launch site
Air Force Eastern Test Range (AFETR)
Object type
Payload
Rocket body
Debris
Shape & HBR
Box + 1 Pan, 10.1 m
Radar Cross Section
13.562 m², Large (>1 m²)

Expand to show TLE details & history
Last TLE update: 2 days ago

TLE from 2 days ago
0 STARLINK-3415
1 51472U 22010S   26171.34358514  .00000298  00000-0  36803-4 0  9997
2 51472  53.1594 178.1067 0001239  77.3287 282.7843 15.08835473242328
Epoch: 2026-06-20T08:14Z
TLE epoch observation values (Epoch: 2026-06-20T08:14:45.756Z)
Latitude
0.00001°
Longitude
145.85649°
Altitude
540.459 km
Speed
7.593 km/s
True Right ascension
11h 52m 25s
True Declination
0° 00' 00"
Sunlit
Object was in daylight at epoch
Visualization orbit readout
Latitude
Unknown
Longitude
Unknown
Altitude
Unknown
Speed
Unknown
Apparent Right ascension
Unknown
Apparent Declination
Unknown
Sunlit
N/A
Visualization observer readout
Local Sidereal Time
00:50:03
Azimuth
Unknown
Elevation
Unknown
Doppler factor
Unknown
Orbital elements
Apogee altitude
540.869 km
Perigee altitude
539.154 km
Semi-major axis
6,918.148 km
Eccentricity
0.00012
Inclination
53.1594°
RAAN
178.1067°
Arg. of periapsis
77.3287°
True anomaly
282.77045°
Mean anomaly
282.7843°
Eccentric anomaly
282.77738°
Mean motion
3.77188 °/min
Orbital period
95.44 mins
BSTAR
0.000036803
Loading maneuver chart data...
Computing Atmospheric mass density...

Documentation

Showing up to 5 results
|